Flag for Germany Weather past 2 weeks in Bad Oeynhausen, North Rhine-Westphalia, Germany

Now
50 °F

Passing clouds.


Feels Like: 48 °F
Forecast: 59 / 71 °F
Wind: 6 mph from South

Location: Bueckeburg

Current Time: Aug 28, 2014 at 7:42:59 AM

Latest Report: Aug 28, 2014 at 6:20 AM


Visibility: N/A

Pressure: 30.04 "Hg

Humidity: 88%

Dew point: 46 °F

Location of Bad OeynhausenLocation

Historic Weather in Bad Oeynhausen — Graph

°F

Bad Oeynhausen temperature yesterday

Maximum temperature yesterday: 70 °F (at 3:20 PM)
Minimum temperature yesterday: 45 °F (at 3:20 AM)
Average temperature yesterday: 57 °F

Past Weeks' High & Low Weather Summary

 TemperatureHumidityPressure
High72 °F (Aug 13, 2:20 PM)100% (Aug 27, 3:20 AM)30.04 "Hg (Aug 27, 3:20 AM)
Low45 °F (Aug 27, 3:20 AM)33% (Aug 27, 6:20 PM)29.59 "Hg (Aug 18, 8:20 AM)
Average57 °F77%29.87 "Hg
* Reported Aug 13 6:20 AM — Aug 28 6:20 AM, Bad Oeynhausen, Weather by CustomWeather, © 2014

Note: Actual official high and low records may vary slightly from our data, if they occured in-between our weather recording intervals... More about our weather records

Advertising

Bad Oeynhausen weather history for previous 24 hours

 ConditionsComfort  
Time TempWeatherWind HumidityBarometerVisibility
6:20 AM
Aug 28
50 °FPassing clouds.6 mph88%30.04 "HgN/A
5:20 AM50 °FPassing clouds.6 mph88%30.04 "HgN/A
4:20 AM50 °FPassing clouds.6 mph82%30.04 "HgN/A
3:20 AM50 °FPassing clouds.2 mph82%30.04 "HgN/A
2:20 AM50 °FPassing clouds.3 mph82%30.04 "HgN/A
1:20 AM52 °FPassing clouds.3 mph77%30.04 "HgN/A
12:20 AM52 °FPassing clouds.5 mph77%30.04 "HgN/A
11:20 PM
Aug 27
54 °FPassing clouds.3 mph72%30.04 "HgN/A
10:20 PM54 °FPassing clouds.5 mph77%30.04 "HgN/A
9:20 PM57 °FPassing clouds.3 mph72%30.04 "HgN/A
8:20 PM61 °FPassing clouds.3 mph63%30.04 "HgN/A
7:20 PM68 °FPassing clouds.5 mph38%30.01 "HgN/A
7:00 PM70 °FPassing clouds.5 mph35%30.01 "HgN/A
6:20 PM70 °FPassing clouds.5 mph33%30.01 "HgN/A
5:20 PM70 °FPassing clouds.7 mph38%30.01 "HgN/A
4:20 PM70 °FPassing clouds.5 mph40%30.01 "HgN/A
3:20 PM70 °FScattered clouds.6 mph43%30.01 "HgN/A
2:20 PM68 °FScattered clouds.5 mph53%30.01 "HgN/A
1:20 PM66 °FScattered clouds.3 mph56%30.01 "HgN/A
12:20 PM64 °FPassing clouds.6 mph60%30.01 "HgN/A
11:20 AM61 °FPassing clouds.3 mph77%30.01 "HgN/A
10:20 AM57 °FPassing clouds.1 mph88%30.01 "HgN/A
9:20 AM52 °FFog.1 mph94%29.98 "Hg1 mi
9:00 AM50 °FFog.2 mph100%29.98 "Hg0 mi
8:20 AM50 °FFog.3 mph94%29.98 "Hg1 mi
8:01 AM48 °FScattered clouds.1 mph100%29.98 "Hg4 mi
7:20 AM46 °FFog.2 mph93%29.95 "Hg5 mi
Weather by CustomWeather, © 2014

See weather overviewHow to use our weather pages